Regional Weather Roundup
Issued by NWS Charleston, SC

Current Version | Previous Version | Graphics & Text | Print | Product List | Glossary On
Versions: 1 2 3 4 5 6 7 8 9 10 11 12 13 14 15 16 17 18 19 20 21 22 23 24 25 26 27 28 29 30 31 32 33 34 35 36 37 38 39 40 41 42 43 44 45 46 47 48 49 50
000
ASUS42 KCHS 271110
RWRCHS
REGIONAL WEATHER ROUNDUP
NATIONAL WEATHER SERVICE CHARLESTON SC
700 AM EDT WED AUG 27 2014

NOTE: "FAIR" INDICATES FEW OR NO CLOUDS BELOW 12,000 FEET WITH NO
SIGNIFICANT WEATHER AND/OR OBSTRUCTIONS TO VISIBILITY.

NOT ALL STATIONS ARE QUALITY CONTROLLED BY THE NATIONAL
WEATHER SERVICE. USE DATA WITH CAUTION...ESPECIALLY
DEWPOINT OBSERVATIONS.

SCZ027-030-031-034>040-042>050-271200-
...SOUTH CAROLINA...

CITY           SKY/WX    TMP DP  RH WIND       PRES   REMARKS
N CHARLESTON   CLEAR     65  61  87 N6        30.02R
WATERFRONT PRK   N/A     70 N/A N/A N8          N/A
FORT JOHNSON   NOT AVBL
MOUNT PLEASANT FAIR      66  63  88 N5        30.01R
JOHNS ISLAND   SUNNY     66  64  94 CALM      30.02R
PINOPOLIS        N/A     73  66  78 NE10      29.93R
MONCKS CORNER    N/A     68  66  94 CALM      30.02R
SUMMERVILLE    FAIR      63  63 100 CALM      30.03R
BEAUFORT MCAS  PTCLDY    68  64  87 NE7       30.02R
BEAUFORT ARPT  FAIR      68  66  94 N7        30.01R
HILTON HEAD IS CLEAR     72  64  78 N7        30.03R
GEORGETOWN     NOT AVBL
WALTERBORO     SUNNY     63 N/A N/A CALM      30.04R
ORANGEBURG     CLEAR     64  60  87 N3        30.04R
BARNWELL       FAIR      63  61  94 N3        30.05R
AIKEN          FAIR      63  63 100 CALM      30.10R
MANNING        FAIR      63 N/A N/A CALM      30.04R
KINGSTREE      NOT AVBL
COLUMBIA       PTCLDY    65  59  81 NW3       30.06R
SUMTER         CLEAR     65  61  88 N3        30.04R
FLORENCE       CLEAR     64  60  87 N7        30.04R
MYRTLE BEACH   CLEAR     66  61  82 N9        30.00R
N MYRTLE BEACH NOT AVBL

$$

GAZ063-065-086>088-099>101-113>116-118-119-134-136>141-150-271200-
...GEORGIA...

CITY           SKY/WX    TMP DP  RH WIND       PRES   REMARKS
SAVANNAH ARPT  PTCLDY    67  63  87 N6        30.03R
HUNTER AAF     CLEAR     69  64  85 N3        30.01R
FORT STEWART   CLEAR     64  62  92 N5        30.02R
STATESBORO     NOT AVBL
SYLVANIA       SUNNY     64  63  98 CALM      30.06R
CLAXTON        NOT AVBL
THOMSON        CLEAR     60  60 100 CALM      30.13R
AUGUSTA-BUSH   CLEAR     59  58  96 CALM      30.06R
AUGUSTA-DANIEL CLEAR     68  61  78 NW7       30.08R
SWAINSBORO     FAIR      70  64  83 NE5       30.06R
VIDALIA          N/A     66  64  94 NE3       30.05R
ALMA           CLEAR     65  64  97 CALM      30.03R FOG
WAYCROSS       CLEAR     70  70 100 N3        30.03R FOG
JESUP            N/A     72  68  88 N5        30.03R
BRUNSWICK      CLEAR     70  68  94 NW3       30.01R
SAINT SIMONS   CLEAR     71  69  93 N6        30.00R

$$

SCZ027-028-034-036>038-045-046-048>050-GAZ119-141-271200-
...LAKE AND SUPPLEMENTAL COASTAL OBSERVATIONS...

STATION/POSITION TIME  TEMP    WIND        PRES    WAVE   SWELL
                       AIR SEA DIR/SP/G            HT/PER HT/PER/DIR
                 (UTC) (F)     (DEG/KT/KT) (MB)    (FT/S) (FT/S/D)
UPR LAKE MARION  NOT AVBL
WINYAH BAY       1000   67     340/  5     1015.0S
LAKE MURRAY      1000   65     340/  2/  6 1017.3R
ACE BASIN NERRS  1000   67     360/  2     1015.0S
FORT PULASKI     1100   72     360/  8/  9 1016.3R
SAPELO ISLAND    1000   73     350/  6     1015.0S

$$

ANZ835-935-AMZ111-154-330-350-352-354-374-450-454-472-271200-
...C-MAN AND BUOY OBSERVATIONS...

STATION/POSITION TIME  TEMP    WIND        PRES    WAVE   SWELL
                       AIR SEA DIR/SP/G            HT/PER HT/PER/DIR
                 (UTC) (F)     (DEG/KT/KT) (MB)    (FT/S) (FT/S/D)
FOLLY BEACH CMAN 1000   71     360/ 10/ 12 1016.1R
BUOY 41004       1100   79 83   10/ 19/ 21 1014.1R   7/ 9   5/ 9
BUOY 41008       1100   80 84   30/ 14/ 17 1015.1R   5/ 9   3/100/ 9
5E ST. MARYS GA  1100      83                N/A     6/11   2/100/11
FRYING PAN BUOY  NOT AVBL
BUOY 41025       1100   78     360/ 17/ 21 1013.1R   8/10   5/ 60/10
CAPE LOOKOUT NC  1000   74      20/ 13/ 17 1014.0R
BUOY 41002       1004   80 81  360/ 23/ 29 1006.6R  13/10   7/ 80/14
BUOY 41010       1100   82 84   10/ 10/ 12 1012.5S  10/10  10/ 40/10
BUOY 41012       NOT AVBL
ST AUGUSTINE FL  1100   81      30/ 13/ 14 1015.5R
CAPERS NEARSHORE 1000   72      20/ 12/ 14   N/A
FRIPP NEARSHORE  NOT AVBL


$$


USA.gov is the U.S. government's official web portal to all federal, state and local government web resources and services.